AirNav   Everest Fuels
 
 1504 users online  

PS01 Sterling Heliport
Croydon, Pennsylvania, USA

GOING TO CROYDON?


FAA INFORMATION EFFECTIVE 28 MARCH 2019

Location

FAA Identifier: PS01
Lat/Long: 40-04-52.6000N / 074-53-39.2000W
40-04.876667N / 074-53.653333W
40.0812778 / -74.8942222
(estimated)
Elevation: 24 ft. / 7 m (estimated)
From city: 1 mile SE of CROYDON, PA
Time zone: UTC -4 (UTC -5 during Standard Time)
Zip code: 19021

Heliport Operations

Heliport use: Private use. Permission required prior to landing
Activation date: 10/2006
Control tower: no
ARTCC: NEW YORK CENTER
FSS: WILLIAMSPORT FLIGHT SERVICE STATION
Attendance: MON-FRI 0800-1700
Wind indicator: yes
Segmented circle: no

Heliport Communications

WX ASOS at PNE (5 nm W): PHONE 215-677-0146
WX ASOS at VAY (9 nm S): 119.325 (609-267-1176)
WX ASOS at TTN (12 nm N): 126.775 (609-538-8690)
WX AWOS-3 at LOM (17 nm W): 118.925 (215-646-1068)
WX ASOS at DYL (18 nm NW): 118.875 (215-345-0392)

Nearby radio navigation aids

VOR radial/distance  VOR name  Freq  Var
ARDr187/10.3YARDLEY VOR/DME108.2010W
GXUr299/14.3MC GUIRE VORTAC110.6012W
RBVr258/19.7ROBBINSVILLE VORTAC113.8010W
CYNr317/26.5COYLE VORTAC113.4010W
SBJr203/30.9SOLBERG VOR/DME112.9010W
PTWr114/31.7POTTSTOWN VORTAC116.5009W
OODr045/32.7WOODSTOWN VORTAC112.8010W
VCNr016/32.8CEDAR LAKE VOR/DME115.2010W
COLr259/36.4COLTS NECK VOR/DME115.4011W
MXEr084/37.0MODENA VORTAC113.2009W

 
NDB name  Hdg/Dist  Freq  Var  ID
AMBLER110/18.127512WING .. -. --.
LAKEHURST286/25.839611WNEL -. . .-..

Heliport Services

Airframe service: MAJOR
Powerplant service: MAJOR

Runway Information

Helipad H1

Dimensions: 50 x 50 ft. / 15 x 15 m
Surface: concrete, in good condition
Traffic pattern: leftleft

Heliport Ownership and Management from official FAA records

Ownership: Privately-owned
Owner: STERLING HELICOPTER
1226 RIVER ROAD
CROYDON, PA 19021
Phone 215-271-2510
Manager: PHIL BIDDEN
1226 RIVER ROAD
CROYDON, PA 19021
Phone 215-271-2510

Additional Remarks

CALL PRIOR TO USE FOR PERMISSION, NOISE ABATEMENT PROC & PREF FLT ROUTE.
AVOID OVR FLT OF HOMES & SCHOOL 0.5 NM NE.
FOR CD CTC PHILADELPHIA APCH AT 800-354-9884.

Instrument Procedures

There are no published instrument procedures at PS01.

Some nearby airports with instrument procedures:

KPNE - Northeast Philadelphia Airport (5 nm W)
KVAY - South Jersey Regional Airport (9 nm S)
N14 - Flying W Airport (10 nm SE)
KTTN - Trenton Mercer Airport (12 nm N)
JY73 - Red Lion Airport (13 nm SE)
KWRI - McGuire Field (Joint Base Mc Guire Dix Lakehurst) Airport (14 nm E)
N87 - Trenton-Robbinsville Airport (16 nm NE)
KLOM - Wings Field Airport (17 nm W)
19N - Camden County Airport (18 nm S)
KDYL - Doylestown Airport (18 nm NW)
 
Loc | Ops | Rwys | IFR | FBO | Links
Com | Nav | Svcs | Stats | Notes
Area around PS01 (Sterling Heliport)
 
Road maps at: MapQuest Bing Google
 
Aerial photo
No photo
 
Sectional chart

 
Airport distance calculator
Flying to Sterling Heliport? Find the distance to fly.

From to PS01

Sunrise and sunset
Times for 23-Apr-2019
 Local
(UTC-4)
 Zulu
(UTC)
Morning civil twilight05:4209:42
Sunrise06:1110:11
Sunset19:4523:45
Evening civil twilight20:1400:14

Current date and time
Zulu (UTC)  23-Apr-2019 19:06:01
Local (UTC-4)  23-Apr-2019 15:06:01
 
METAR
KPNE 
6nm W 
231854Z 27006KT 10SM CLR 27/08 A2990 RMK AO2 SLP124 T02670083
KVAY 
9nm S 
ASOS 119.325 609-267-1176
231854Z AUTO 25009G14KT 10SM CLR 26/07 A2989 RMK AO2 SLP120 T02560072
KTTN 
13nm N 
ASOS 133.70 609-538-8690
231853Z 25009G17KT 10SM CLR 24/08 A2988 RMK AO2 SLP112 T02440083
KWRI 
15nm E 
231756Z AUTO M M M M M M RMK AO2 SLPNO 10184 20151 RVRNO PWINO PNO FZRANO TSNO VISNO RWY06 CHINO RWY06 $
KLOM 
17nm W 
231855Z AUTO 24007KT 10SM CLR 25/08 A2991 RMK AO1
KDYL 
18nm NW 
231854Z AUTO 26007KT 10SM CLR 25/08 A2989 RMK AO2 SLP118 T02500078
TAF
KPNE 
6nm W 
231724Z 2318/2418 26008KT P6SM SCT250 FM240000 21008KT P6SM BKN150 FM240500 25006KT P6SM BKN080 FM240800 28008KT P6SM BKN150 FM241000 30010KT P6SM SCT200 FM241500 29012G22KT P6SM SKC
KTTN 
13nm N 
231724Z 2318/2418 25006KT P6SM SCT250 FM240100 21008KT P6SM BKN150 FM240500 26006KT P6SM BKN080 FM240900 30010KT P6SM SCT200 FM241400 30012G20KT P6SM SKC
KWRI 
15nm E 
231800Z 2318/2424 VRB06KT 9999 FEW210 QNH2985INS BECMG 2400/2401 19009KT 9999 FEW190 WS020/23030KT QNH2974INS BECMG 2410/2411 27009KT 9999 SCT022 510013 QNH2976INS BECMG 2412/2413 28020G25KT 9999 FEW022 510013 QNH2978INS TX26/2320Z TN16/2413Z
NOTAMs
Click for the latest NOTAMs
NOTAMs are issued by the DoD/FAA and will open in a separate window not controlled by AirNav.

 

 
 

Would you like to see your business listed on this page?

 If your business provides an interesting product or service to pilots, flight crews, aircraft, or users of the Sterling Heliport, you should consider listing it here.  To start the listing process, click on the button below
 
Add a business
 

Other Pages about Sterling Heliport

Update a link
 
Copyright © AirNav, LLC. All rights reserved. Privacy Policy  Contact